Preview of NWS' New Version of Forecast
This preview is not operational and should not be used for support decisions.

Regional Weather Roundup (RWR)

Issued by National Weather Service (NWS)

                            
000
ASUS45 KABQ 230201
RWRNM 
NEW MEXICO REGIONAL WEATHER ROUNDUP
NATIONAL WEATHER SERVICE ALBUQUERQUE NM
800 PM MDT THU AUG 22 2019

NOTE: "FAIR" MEANS FEW OR NO CLOUDS BELOW 12,000 FEET AGL WITH NO
       SIGNIFICANT WEATHER OR OBSTRUCTIONS TO VISION.

      THIS PRODUCT IS RELEASED AS TWO VERSIONS.  ONE VERSION NEAR
      THE TOP OF THE HOUR CONTAINING PRELIMINARY DATA FROM ALBUQUERQUE
      AND OTHER STATIONS.  A FINAL VERSION WITH ADDITIONAL DATA IS 
      ISSUED ABOUT 10 MINUTES AFTER THE HOUR.
 
NMZ501-503-504-510>518-230300-
NORTHWEST PLATEAU/NORTHCENTRAL MOUNTAINS
  
CITY           SKY/WX    TMP DP  RH WIND       PRES   REMARKS
FARMINGTON     FAIR      85  18   8 NW5       29.97R                  
SANTA FE       FAIR      77  42  28 E3        30.08R                  
TAOS             N/A     72  42  34 SE5       30.20R                  
ANGEL FIRE     MOCLDY    54  51  87 W8        30.33R                  

$$
NMZ402-403-502-505>509-230300-
WESTCENTRAL MOUNTAINS/SOUTHWEST MOUNTAINS
  
CITY           SKY/WX    TMP DP  RH WIND       PRES   REMARKS
GALLUP         FAIR      79  21  11 W8        30.09R                  
GRANTS         FAIR      76  29  17 W6        30.12R                  
SILVER CITY    FAIR      80  43  26 S6        30.06R                  

$$
NMZ407-409-411-412-230300-
SOUTHERN DESERTS
  
CITY           SKY/WX    TMP DP  RH WIND       PRES   REMARKS
DEMING         FAIR      86  53  32 S3        29.96R                  
LAS CRUCES     FAIR      88  47  24 SW7       29.99R                  
HOLLOMAN AFB   FAIR      87  50  27 SE14      29.96R                  
ALAMOGORDO     FAIR      84  46  26 S10       29.96R                  
T OR C         FAIR      85  47  26 CALM      29.98F                  

$$
NMZ519>523-230300-
CENTRAL VALLEYS/CENTRAL HIGHLANDS
  
CITY           SKY/WX    TMP DP  RH WIND       PRES   REMARKS
ALBUQUERQUE    MOCLDY    85  39  19 SE14      30.00R                  
DOUBLE EAGLE     N/A     82  43  24 SE9       30.03R                  
CLINES CORNERS FAIR      72  46  39 E15G28    30.19R                  
BELEN          FAIR      85  35  16 S12       29.99R                  
SOCORRO        FAIR      84  42  22 S14       29.99R                  

$$
NMZ524>526-539-540-230300-
SOUTHCENTRAL MOUNTAINS
  
CITY           SKY/WX    TMP DP  RH WIND       PRES   REMARKS
RUIDOSO        FAIR      68  52  56 S7        30.20R                  

$$
NMZ527>531-230300-
NORTHEAST HIGHLANDS/NORTHEAST PLAINS
  
CITY           SKY/WX    TMP DP  RH WIND       PRES   REMARKS
LAS VEGAS      FAIR      65  46  50 SW5       30.22R                  
RATON          FAIR      67  46  47 SW6       30.13R                  
CLAYTON        FAIR      76  53  44 S10       30.01R                  

$$
NMZ532>537-230300-
EASTCENTRAL PLAINS
  
CITY           SKY/WX    TMP DP  RH WIND       PRES   REMARKS
SANTA ROSA     FAIR      76  56  49 SW5       30.03R                  
TUCUMCARI      LGT RAIN  76  56  49 NW14      29.99R                  
CANNON AFB     NOT AVBL                                               
CLOVIS AIRPORT FAIR      77  58  51 SE7       30.01R                  

$$
NMZ028-029-538-230300-
SOUTHEAST PLAINS
  
CITY           SKY/WX    TMP DP  RH WIND       PRES   REMARKS
ROSWELL        FAIR      86  53  32 S5        29.93R                  
ARTESIA        FAIR      90  54  29 CALM      29.94R                  
CARLSBAD       FAIR      86  58  38 E13       29.90R                  
HOBBS          FAIR      82  57  42 S9        29.97R                  


$$